Regional Weather Roundup
Issued by NWS

Home | Current Version | Previous Version | Graphics & Text | Print | Product List | Glossary On
Versions: 1 2 3 4 5 6 7 8 9 10 11 12 13 14 15 16 17 18 19 20 21 22 23 24 25 26 27 28 29 30 31 32 33 34 35 36 37 38 39 40 41 42 43 44 45 46 47 48 49 50
000
ASUS43 KIND 192059
RWRIN

WEATHER ROUNDUP FOR INDIANA
NATIONAL WEATHER SERVICE INDIANAPOLIS IN
500 PM EDT TUE AUG 19 2014

NOTE: "FAIR" INDICATES FEW OR NO CLOUDS BELOW 12,000 FEET WITH NO
SIGNIFICANT WEATHER AND/OR OBSTRUCTIONS TO VISIBILITY.

* - STATION DOES NOT REPORT WEATHER SUCH AS PRECIPITATION OR FOG.

+ - STATION NOT QUALITY CONTROLLED BY THE NATIONAL WEATHER SERVICE.
    USE DATA WITH CAUTION...ESPECIALLY DEWPOINT AND RELATIVE
    HUMIDITY OBSERVATIONS.

INZ001>003-010>013-019-020-192200-
NORTHWEST INDIANA

CITY           SKY/WX    TMP DP  RH WIND       PRES   REMARKS
GARY /AIRPORT/ PTSUNNY   79  66  65 MISG      29.73
KNOX *+        PTSUNNY   76  65  67 SW9       29.75S
MONTICELLO +   LGT RAIN  73  68  83 S9G17     29.76F
RENSSELAER +   PTSUNNY   79  72  78 CALM      29.76F
VALPARAISO     MOSUNNY   78  64  61 SW13G18   29.76R

$$

LMZ046-743>745-192200-
SOUTHERN LAKE MICHIGAN

STATION/POSITION TIME  TEMP WIND        PRES
                       AIR  DIR/SP/G
                 (UTC) (F)  (DEG/KT/KT) (MB)
BURNS HARBOR     2000   77  210/ 13/ 16   N/A
MICHIGAN CITY    2000   75  210/ 21/ 24   N/A

$$

INZ004-005-014>016-021>024-192200-
NORTH CENTRAL INDIANA

CITY           SKY/WX    TMP DP  RH WIND       PRES   REMARKS
GOSHEN         CLOUDY    75  68  78 S7        29.79R
PERU/GRISSOM   PTSUNNY   81  73  78 SW16      29.79S
SOUTH BEND     PTSUNNY   81  64  56 SW12      29.76R
WARSAW +       CLOUDY    73  66  78 SW6       29.80R

$$

INZ006>009-017-018-025>027-192200-
NORTHEAST INDIANA

CITY           SKY/WX    TMP DP  RH WIND       PRES   REMARKS
ANGOLA *+      PTSUNNY   68  59  73 SW6       29.82R
FORT WAYNE     PTSUNNY   81  68  64 W16G22    29.80R THUNDER

$$

INZ028-029-035-036-043>045-051>053-192200-
WEST CENTRAL INDIANA

CITY           SKY/WX    TMP DP  RH WIND       PRES   REMARKS
GREENCASTLE +  CLOUDY    81  72  74 S3        29.80S
LAFAYETTE      CLOUDY    70  69  97 SE5       29.76S
TERRE HAUTE    PTSUNNY   85  73  67 SW15      29.79R

$$

INZ030>032-037>040-046>048-054>057-064-065-192200-
CENTRAL INDIANA

CITY           SKY/WX    TMP DP  RH WIND       PRES   REMARKS
INDIANAPOLIS   PTSUNNY   82  67  60 MISG      29.78F
-EAGLE CREEK   PTSUNNY   83  66  56 VRB5      29.77F
KOKOMO *+      CLOUDY    81  68  65 W12       29.80R
MT COMFORT *+  MOSUNNY   82  63  51 SW12      29.81F
SHELBYVILLE    MOSUNNY   85  68  56 SW8       29.79F
ZIONSVILLE +   PTSUNNY   82  67  59 SW6       29.80F

$$

INZ033-034-041-042-049-050-058-059-192200-
EAST CENTRAL INDIANA

CITY           SKY/WX    TMP DP  RH WIND       PRES   REMARKS
MUNCIE         PTSUNNY   85  65  51 SW10      29.80S

$$

INZ060-061-067>069-081>083-085>088-192200-
SOUTHWEST INDIANA

CITY           SKY/WX    TMP DP  RH WIND       PRES   REMARKS
EVANSVILLE     CLOUDY    87  74  64 SW12      29.81F HX  95

$$

INZ062-063-066-070>080-084-089>092-192200-
SOUTH CENTRAL AND SOUTHEAST INDIANA

CITY           SKY/WX    TMP DP  RH WIND       PRES   REMARKS
BLOOMINGTON    PTSUNNY   84  71  65 SW7       29.81F

$$




USA.gov is the U.S. government's official web portal to all federal, state and local government web resources and services.